Погода Фурманово

Погода Фурманово : погода сейчас, прогноз погоды и архив. Всё, что Вы хотите узнать о погоде Фурманово!

Поиск расширенной информации на нашем сайте:

Другие новости

Новости СМИ2

Главная страница сайта

Новости сайта

03.07.2017

Напоминаем, что на нашем специализированном сайте Метеоцентр.Азия вы можете получить высокодетализированные автоматические прогнозы погоды по пунктам России, СНГ и мира в авиационном формате (включающие направление и скорость ветра, видимость, явления погоды, количество и форму облачности, нижнюю и верхнюю границу облачности).


Погода Фурманово - сегодня

Время (UTC), дата Ветер
(°,м/с) 
Видим.   Явления Облачность Т
(°С)
Тd
(°С)
f(%) Тe
(°С)
Pmin
(гПа)
dP
(гПа)
Po
(мм)
O2
(г/м3)
Тmin Tmax R s Состояние
почвы
03 19.08.17 050 (СВ) 4000 м  дым  8/0 средняя, верхняя 
[Ac cuf|Ci fib]
+20.2 +8.7 48 +20  1021.4  0.8  765  286  +18.5         
06 19.08.17 090 (В) 20000 м    6/0 средняя, верхняя 
[Ac cast|Ci fib]
+29.5 +7.7 25 +30  1021.9  0.5  766  277  +18.5         
09 19.08.17 090 (В) 20000 м    6/0 средняя, верхняя 
[Ac cast|Ci fib]
+33.2 +6 18 +33  1021.4  -0.5  765  274           
12 19.08.17 090 (В) 20000 м    8/5 600 м кучево-дожд., средняя, верхняя 
[Cb calv|Ac lent|Ci fib]
+33.9 +4.4 16 +34  1020.8  -0.6  765  273           
15 19.08.17 090 (В) 20000 м  в посл. час гроза  9/6 600 м кучево-дожд., средняя, верхняя 
[Cb cap|Ac lent|Ci]
+27.8 +10.8 35 +30  1022  1.2  766  278    +34.6       
18 19.08.17 050 (СВ) н/о  {гроза}  4/3 600 м кучево-дожд., средняя 
[Cb cap|Ac lent]
+26.6 +8.4 32 +27  1021.5  -0.5  765  280    +34.6       
21 19.08.17 050 (СВ) н/о    6/4 600 м кучево-дожд., средняя, верхняя 
[Cb cap|Ac lent|Ci fib]
+22.5 +9.7 44 +23  1022.2  0.7  766  283           
00 20.08.17 050 (СВ) н/о    4/4 600 м кучево-дожд. 
[Cb cap]
+18.7 +7.9 49 +19  1022.4  0.2  766  288           
03 20.08.17 050 (СВ) 20000 м    8/6 600 м кучево-дожд., средняя, верхняя 
[Cb cap|Ac cast|Cc]
+18.6 +9.7 56 +20  1023.4  767  288           
06 20.08.17 050 (СВ) 20000 м    9/5 600 м кучево-дожд., средняя, верхняя 
[Cb cap|Ac cast|Ci fib]
+25.8 +9.2 35 +26  1023.8  0.4  767  281  +17.7         
09 20.08.17 090 (В) 20000 м    8/3 600 м кучево-дожд., средняя, верхняя 
[Cb cap|Ac cuf|Ci sp]
+32 +5.2 19 +32  1022.9  -0.9  766  276           
12 20.08.17 090 (В) 20000 м    9/6 600 м кучево-дожд., средняя, верхняя 
[Cb cap|Ac cuf|Ci fib]
+32.5 +4.2 17 +33  1022.1  -0.8  766  275           
15 20.08.17 050 (СВ) 20000 м    8/4 600 м кучево-дожд., средняя 
[Cb cap|Ac cast]
+31.4 +7.3 22 +31  1021  -1.1  765  275    +33.4       
18 20.08.17 090 (В) н/о    6/4 600 м кучево-дожд., средняя, верхняя 
[Cb cap|Ac cuf|Ci fib]
+26.2 +9.1 34 +26  1022.3  1.3  766  280    +33.4       
21 20.08.17 050 (СВ) н/о    9/4 600 м кучево-дожд., средняя, верхняя 
[Cb cap|Ac cuf|Ci fib]
+25 +6.3 30 +25  1021.5  -0.8  765  282           
00 21.08.17 050 (СВ) н/о    5/0 средняя, верхняя 
[Ac cuf|Ci fib]
+18.8 +7 46 +19  1021.4  -0.1  765  287           
03 21.08.17 050 (СВ) 20000 м    5/0 средняя, верхняя 
[Ac lent|Ci fib]
+18.2 +5.3 43 +18  1021.9  0.5  766  288  +16.1        сухая 
06 21.08.17 050 (СВ) 20000 м    5/0 верхняя 
[Cs]
+28.4 +5.4 23 +28  1021.5  -0.4  765  279  +16.1         
09 21.08.17 090 (В) 20000 м    4/0 верхняя 
[Cs]
+31.6 +5 19 +32  1020.4  -1.1  764  275           
12 21.08.17 090 (В) 20000 м    4/0 верхняя 
[Ci fib]
+32.8 +2.2 14 +33  1018.5  -1.9  763  274           
15 21.08.17 090 (В) 20000 м    3/0 верхняя 
[Ci fib]
+31 +0.7 14 +31  1017.6  -0.9  762  276    +33.5       
18 21.08.17 090 (В) н/о    ясно 
+22.4 +0.6 24 +22  1017.7  0.1  762  284    +33.5       
21 21.08.17 090 (В) н/о    ясно 
+19.2 +5.5 41 +20  1017.7  762  286           
00 22.08.17 090 (В) н/о    ясно 
+16.8 +6.8 52 +17  1017.7  762  288           
03 22.08.17 050 (СВ) 20000 м    ясно 
+16.8 +8.6 58 +17  1018  0.3  763  288           
Время (UTC), дата Ветер
(°,м/с) 
Видим.   Явления Облачность Т
(°С)
Тd
(°С)
f(%) Тe
(°С)
Pmin
(гПа)
dP
(гПа)
Po
(мм)
O2
(г/м3)
Тmin Tmax R s Состояние
почвы

Для получения пояснительной информации подведите курсор к названию столбца.

ПОГОДА Фурманово - архив

Всё, что Вы хотите узнать о погоде Фурманово - удобно и подробно!

Выберите нужную дату (начиная с 1 января 2015* года) и нажмите кнопку "Найти".
Будут отображены архивные сводки погоды по пункту Фурманово, начиная с указанной даты.


Отображать данные в формате CSV (для использования в таблицах Excel)


Внимание! Наш архив погоды предназначен исключительно для личного некоммерческого использования в познавательных целях. Если Вам необходимы официальные справки о состоянии погоды (для производственных, юридических, коммерческих и т.п. целей), обращайтесь в органы Росгидромета.

*Примечание: данная дата относится к архиву по метеостанциям СССР (Россия, СНГ, Балтия).
Архив по метеостанциям Зарубежной Европы и Азии (кроме Китая) хранится 10 дней, по другим регионам земного шара (Китай, Африка, Америка, Австралия, Океания) - 1 день.

Фурманово - район местоположения метеостанции


Название, широта, долгота, высота метеостанции:
Фурманово 49.7°ш. 49.5°д. 10 м над ур. моря [Казахстан]

Дополнительная информация

В oтличие oт бoльшинства пoгoдных сайтoв мы публикуем пoдрoбную метеoинфoрмацию в детальнoм прoфессиoнальнoм фoрмате.

Характеристики температуры и влажнoсти вoздуха измеряются на высoте 2 м в тени вдали oт зданий и деревьев.
Скoрoсть ветра измеряется на высoте 10 м (на урoвне рoста челoвека скoрoсть ветра ниже в 1.5-2 раза). Если метеoстанция нахoдится в гoрoде или в лесу, тo скoрoсть ветра занижена на 2-4 м/с пo сравнению с oткрытым местoм. Скoрoсть ветра над акватoриями крупных рек и oзёр, а также на вершинах хoлмoв на 2-5 м/с выше, чем в oбычных услoвиях.
Атмoсфернoе давление в разных тoчках местнoсти мoжет значительнo oтличаться oт давления на метеoстанции, в зависимoсти oт услoвий рельефа (при пoдъёме на 10 м давление пoнижается примернo на 1 мм рт.ст.).